Location: Basses Si�yes
(44.0835°N, 6.2037°E)
Time: 07:47:32
(UTC+00:00)

Cosmos 405 - Pass Details

Date: 27 February 2020
Orbit: 452 x 465 km, 81.3° (Epoch: 30 March)

Event Time Altitude Azimuth Distance (km) Brightness Sun altitude
Rises 18:47:57 0° 345° (NNW) 2,505 6.9 -16.5°
Reaches altitude 10° 18:50:04 10° 340° (NNW) 1,626 6.0 -16.9°
Maximum altitude 18:53:33 53° 263° (W) 579 3.8 -17.5°
Drops below altitude 10° 18:56:59 10° 186° (S) 1,614 5.7 -18.2°
Sets 18:59:05 0° 182° (S) 2,485 6.6 -18.5°
